| time (UTC) | temp F | wind direction | speed knots | gust knots | rain 1hr in | rain 24hr in | rain mn in | humidity % | barometer mb |
| 20260504081508 | 64 | 276 | 0.0 | 0.0 | 0.00 | 0.00 | 0.00 | 64 | 1006.7 |
| 20260504050020 | 77 | 294 | 0.0 | 1.7 | 0.00 | 0.00 | 0.00 | 44 | 1005.5 |
| 20260504044519 | 77 | 296 | 0.9 | 2.6 | 0.00 | 0.00 | 0.00 | 45 | 1005.5 |
| 20260504043018 | 78 | 288 | 0.0 | 0.9 | 0.00 | 0.00 | 0.00 | 45 | 1005.4 |
| 20260504041517 | 79 | 287 | 0.0 | 2.6 | 0.00 | 0.00 | 0.00 | 45 | 1005.2 |
| 20260504040018 | 80 | 300 | 0.0 | 0.9 | 0.00 | 0.00 | 0.00 | 44 | 1005.2 |
| 20260504034528 | 81 | 288 | 0.0 | 0.9 | 0.00 | 0.00 | 0.00 | 42 | 1005.0 |
| 20260504033013 | 82 | 297 | 0.9 | 4.3 | 0.00 | 0.00 | 0.00 | 40 | 1004.9 |
| 20260504031513 | 83 | 301 | 0.0 | 3.5 | 0.00 | 0.00 | 0.00 | 39 | 1004.7 |
| 20260504030012 | 84 | 290 | 0.9 | 7.0 | 0.00 | 0.00 | 0.00 | 37 | 1004.7 |
| 20260504024512 | 85 | 287 | 0.9 | 4.3 | 0.00 | 0.00 | 0.00 | 36 | 1004.6 |
| 20260504023041 | 86 | 285 | 0.9 | 7.0 | 0.00 | 0.00 | 0.00 | 35 | 1004.6 |
| 20260504021540 | 87 | 323 | 0.9 | 7.0 | 0.00 | 0.00 | 0.00 | 34 | 1004.6 |
| 20260504020040 | 88 | 306 | 2.6 | 7.0 | 0.00 | 0.00 | 0.00 | 33 | 1004.6 |
| 20260504014536 | 88 | 322 | 3.5 | 8.7 | 0.00 | 0.00 | 0.00 | 32 | 1004.6 |
| 20260504013036 | 89 | 285 | 3.5 | 7.8 | 0.00 | 0.00 | 0.00 | 31 | 1004.6 |
| 20260504011533 | 89 | 335 | 2.6 | 7.8 | 0.00 | 0.00 | 0.00 | 31 | 1004.7 |
| 20260504010044 | 90 | 269 | 4.3 | 9.6 | 0.00 | 0.00 | 0.00 | 31 | 1004.9 |
| 20260504004528 | 90 | 298 | 3.5 | 9.6 | 0.00 | 0.00 | 0.00 | 30 | 1004.9 |
| 20260504003025 | 90 | 6 | 0.9 | 7.8 | 0.00 | 0.00 | 0.00 | 30 | 1005.2 |
| 20260504001524 | 90 | 15 | 2.6 | 7.0 | 0.00 | 0.00 | 0.00 | 30 | 1005.2 |
| 20260504000022 | 89 | 296 | 5.2 | 9.6 | 0.00 | 0.00 | 0.00 | 30 | 1005.3 |
| 20260503234523 | 90 | 265 | 1.7 | 7.8 | 0.00 | 0.00 | 0.00 | 31 | 1005.4 |
| 20260503233016 | 90 | 315 | 4.3 | 9.6 | 0.00 | 0.00 | 0.00 | 32 | 1005.7 |
| 20260503231518 | 90 | 278 | 2.6 | 7.0 | 0.00 | 0.00 | 0.00 | 29 | 1005.7 |
| 20260503230014 | 90 | 293 | 2.6 | 7.8 | 0.00 | 0.00 | 0.00 | 30 | 1005.8 |
| 20260503224508 | 90 | 321 | 2.6 | 7.8 | 0.00 | 0.00 | 0.00 | 31 | 1006.1 |
| 20260503223006 | 90 | 307 | 0.9 | 6.1 | 0.00 | 0.00 | 0.00 | 28 | 1006.3 |
| 20260503221504 | 90 | 255 | 1.7 | 5.2 | 0.00 | 0.00 | 0.00 | 26 | 1006.5 |
| 20260503220000 | 89 | 47 | 3.5 | 6.1 | 0.00 | 0.00 | 0.00 | 33 | 1006.8 |
| 20260503214658 | 89 | 26 | 1.7 | 7.0 | 0.00 | 0.00 | 0.00 | 35 | 1006.9 |
| 20260503213123 | 88 | 103 | 0.9 | 5.2 | 0.00 | 0.00 | 0.00 | 35 | 1007.1 |
| 20260503211616 | 88 | 279 | 0.0 | 6.1 | 0.00 | 0.00 | 0.00 | 38 | 1007.2 |
| 20260503210046 | 85 | 324 | 3.5 | 7.8 | 0.00 | 0.00 | 0.00 | 42 | 1007.6 |
| 20260503204514 | 85 | 289 | 5.2 | 7.8 | 0.00 | 0.00 | 0.00 | 43 | 1007.8 |
| 20260503203020 | 85 | 305 | 0.9 | 5.2 | 0.00 | 0.00 | 0.00 | 45 | 1008.1 |
| 20260503201505 | 83 | 285 | 0.9 | 6.1 | 0.00 | 0.00 | 0.00 | 47 | 1008.3 |
| 20260503200000 | 82 | 264 | 1.7 | 5.2 | 0.00 | 0.00 | 0.00 | 48 | 1008.6 |
| 20260503194558 | 81 | 326 | 2.6 | 7.0 | 0.00 | 0.00 | 0.00 | 50 | 1008.6 |
| 20260503193055 | 79 | 350 | 0.0 | 6.1 | 0.00 | 0.00 | 0.00 | 52 | 1008.8 |
| 20260503191601 | 79 | 281 | 0.0 | 5.2 | 0.00 | 0.00 | 0.00 | 53 | 1008.9 |
| 20260503190047 | 77 | 342 | 1.7 | 5.2 | 0.00 | 0.00 | 0.00 | 53 | 1009.1 |
| 20260503184603 | 77 | 280 | 0.0 | 4.3 | 0.00 | 0.00 | 0.00 | 54 | 1009.3 |
| 20260503183045 | 75 | 330 | 0.9 | 5.2 | 0.00 | 0.00 | 0.00 | 56 | 1009.5 |
| 20260503181533 | 73 | 294 | 2.6 | 5.2 | 0.00 | 0.00 | 0.00 | 59 | 1009.6 |
| 20260503180033 | 72 | 32 | 2.6 | 6.1 | 0.00 | 0.00 | 0.00 | 62 | 1009.9 |
| 20260503174536 | 70 | 309 | 0.9 | 5.2 | 0.00 | 0.00 | 0.00 | 66 | 1009.9 |
| 20260503173024 | 69 | 333 | 1.7 | 4.3 | 0.00 | 0.00 | 0.00 | 67 | 1010.1 |
| 20260503171525 | 68 | 35 | 0.9 | 3.5 | 0.00 | 0.00 | 0.00 | 69 | 1010.3 |